Stations météo

Publicité
Nantes, France (7222): Température de l'air & dewpoint: 06.12.2018 19:00:00 - 12.12.2018 19:00:00 (CET)Nantes, France (7222): Température de l'air 5cm: 06.12.2018 19:00:00 - 12.12.2018 19:00:00 (CET)Nantes, France (7222): Température de l'air -20cm & Température de l'air -100cm: 06.12.2018 19:00:00 - 12.12.2018 19:00:00 (CET)Nantes, France (7222): Vitesse du vent & gusts: 06.12.2018 19:00:00 - 12.12.2018 19:00:00 (CET)Nantes, France (7222): Direction du vent: 06.12.2018 19:00:00 - 12.12.2018 19:00:00 (CET)Nantes, France (7222): reduced air pressure: 06.12.2018 19:00:00 - 12.12.2018 19:00:00 (CET)Nantes, France (7222): visibility: 06.12.2018 19:00:00 - 12.12.2018 19:00:00 (CET)Nantes, France (7222): Ensoleillement: 06.12.2018 19:00:00 - 12.12.2018 19:00:00 (CET)Nantes, France (7222): Quantités de précipitations: 06.12.2018 19:00:00 - 12.12.2018 19:00:00 (CET)
Date & Time tt [°C] td [°C] tt 5cm [°C] tt -20cm [°C] tt -100cm [°C] ff [km/h] ff [knt] fx [km/h] fx [knt] dd ppp [hPa] vv [km] sd [min] rr [mm]
12.12.2018 19:00:00 3,9 2,3 1,0 9,6 12,4 12 7 27 15 E 1016,2 11 0 0,0
12.12.2018 18:00:00 4,7 2,4 2,7 9,6 12,4 11 6 30 16 E 1017,0 13 0 0,0
12.12.2018 17:00:00 6,0 2,8 5,5 9,6 12,4 17 9 25 13 E 1017,1 18 45 0,0
12.12.2018 16:00:00 6,1 3,1 5,8 9,6 12,5 15 8 27 14 E 1017,7 16 40 0,0
12.12.2018 15:00:00 5,5 3,2 7,0 9,5 12,4 11 6 22 12 E 1018,2 13 0 0,0
12.12.2018 14:00:00 5,8 3,3 7,3 9,5 12,4 12 7 19 10 ENE 1018,7 15 5 0,0
12.12.2018 13:00:00 5,8 3,6 7,7 9,5 12,5 8 4 21 11 E 1019,3 14 0 0,0
12.12.2018 12:00:00 5,7 3,9 5,9 9,5 12,5 15 8 21 11 ENE 1019,9 14 0 0,0
12.12.2018 11:00:00 4,9 3,6 4,8 9,6 12,5 9 5 22 12 E 1020,3 12 0 0,0
12.12.2018 10:00:00 4,4 3,2 4,3 9,6 12,5 14 8 22 12 ENE 1020,3 11 0 0,0
12.12.2018 09:00:00 4,3 3,3 4,0 9,6 12,5 14 7 22 12 ENE 1019,9 11 0 0,0
12.12.2018 08:00:00 4,3 3,3 4,0 9,6 12,5 14 8 22 12 E 1019,6 10 0 0,0
12.12.2018 07:00:00 4,3 3,4 4,0 9,7 12,5 13 7 22 12 E 1019,6 10 0 0,0
12.12.2018 06:00:00 4,4 3,5 4,0 9,7 12,5 12 7 24 13 ENE 1019,9 9 0 0,0
12.12.2018 05:00:00 4,5 3,6 4,0 9,7 12,5 11 6 19 10 ENE 1020,3 8 0 0,0
12.12.2018 04:00:00 4,4 3,8 3,6 9,8 12,5 5 3 21 11 E 1020,8 7 0 0,0
12.12.2018 03:00:00 4,2 3,6 3,6 9,8 12,5 12 6 17 9 E 1020,5 7 0 0,0
12.12.2018 02:00:00 4,2 3,6 2,5 9,9 12,5 11 6 26 14 ESE 1021,0 7 0 0,0
12.12.2018 01:00:00 3,2 2,8 0,0 9,9 12,5 8 4 14 7 E 1021,6 5 0 0,0
12.12.2018 00:00:00 3,1 2,4 0,5 9,9 12,5 3 2 18 10 ESE 1022,1 5 0 0,0
11.12.2018 23:00:00 3,8 3,1 2,9 10,0 12,5 11 6 23 12 E 1022,0 7 0 0,0
11.12.2018 22:00:00 3,8 3,1 3,1 10,0 12,6 16 9 26 14 E 1021,9 5 0 0,0
11.12.2018 21:00:00 4,4 3,5 3,6 10,0 12,6 14 8 21 11 E 1022,3 3,7 0 0,0
11.12.2018 20:00:00 5,7 4,3 4,3 10,0 12,6 10 5 21 11 E 1022,1 13 0 0,0
11.12.2018 19:00:00 7,0 5,1 1,9 9,9 12,6 12 7 23 12 E 1021,9 15 0 0,0
11.12.2018 18:00:00 7,3 4,9 2,8 9,9 12,6 9 5 14 8 SE 1022,5 18 0 0,0
11.12.2018 17:00:00 8,6 5,3 7,6 9,9 12,6 10 6 16 8 ESE 1022,6 35 2 0,0
11.12.2018 16:00:00 9,9 5,1 10,3 9,8 12,6 12 7 20 11 SSE 1023,0 43 53 0,0
11.12.2018 15:00:00 10,4 5,8 11,8 9,8 12,6 11 6 27 15 S 1023,0 40 46 0,0
11.12.2018 14:00:00 10,8 6,0 13,2 9,7 12,6 15 8 24 13 SSE 1023,6 19 60 0,0
11.12.2018 13:00:00 9,7 6,8 10,6 9,8 12,6 16 9 24 13 SE 1024,1 16 60 0,0
11.12.2018 12:00:00 8,1 6,7 9,0 9,8 12,6 13 7 21 12 SE 1025,0 14 60 0,0
11.12.2018 11:00:00 6,0 5,7 6,7 9,9 12,6 5 3 15 8 ESE 1025,7 7 60 0,0
11.12.2018 10:00:00 4,3 4,2 1,8 10,0 12,6 5 3 10 5 ESE 1025,7 3,1 50 0,0
11.12.2018 09:00:00 3,3 3,2 0,6 10,1 12,6 5 3 10 5 ENE 1026,2 4,6 0 0,0
11.12.2018 08:00:00 2,7 2,6 -1,1 10,2 12,6 5 3 9 5 NE 1025,9 1,6 0 0,0
11.12.2018 07:00:00 2,0 1,9 -2,9 10,2 12,6 5 3 7 4 NE 1025,8 0,9 0 0,0
11.12.2018 06:00:00 1,2 1,1 -2,7 10,3 12,6 0 0 6 4 N 1026,3 0,3 0 0,0
11.12.2018 05:00:00 1,2 1,1 -1,3 10,4 12,6 3 1 6 3 E 1026,7 0,1 0 0,0
11.12.2018 04:00:00 1,0 0,9 -1,1 10,4 12,6 4 2 8 4 SSE 1027,6 0,2 0 0,0
11.12.2018 03:00:00 1,7 1,4 -2,1 10,5 12,6 4 2 6 3 SSE 1028,1 0,1 0 0,2
11.12.2018 02:00:00 2,0 1,7 -1,6 10,6 12,7 5 3 8 5 ESE 1028,8 0,2 0 0,0
11.12.2018 01:00:00 1,9 1,5 -1,9 10,7 12,6 3 2 8 4 SE 1029,2 0,1 0 0,0
11.12.2018 00:00:00 2,7 2,3 -2,2 10,7 12,7 2 1 7 4 S 1029,4 0,2 0 0,0
10.12.2018 23:00:00 3,2 2,6 -1,7 10,8 12,6 3 2 7 4 S 1029,8 3,2 0 0,0
10.12.2018 22:00:00 4,0 3,1 -1,4 10,8 12,6 2 1 2 1 WSW 1030,0 5 0 0,0
10.12.2018 21:00:00 4,9 3,7 -1,1 10,8 12,6 0 0 3 2 N 1030,4 15 0 0,0
10.12.2018 20:00:00 5,5 3,5 -0,7 10,8 12,6 2 1 6 3 W 1030,4 11 0 0,0
10.12.2018 19:00:00 7,8 4,2 2,4 10,8 12,7 5 3 8 5 W 1030,4 31 0 0,0
10.12.2018 18:00:00 8,7 4,9 3,3 10,8 12,6 4 2 10 5 NW 1030,8 28 0 0,0
10.12.2018 17:00:00 10,2 5,4 7,9 10,7 12,6 8 4 17 9 W 1030,8 42 48 0,0
10.12.2018 16:00:00 11,7 4,9 13,8 10,7 12,6 10 6 18 10 NW 1030,7 49 54 0,0
10.12.2018 15:00:00 11,5 5,8 11,5 10,6 12,7 12 6 23 13 W 1030,9 20 49 0,0
10.12.2018 14:00:00 11,6 6,1 15,8 10,6 12,6 13 7 24 13 NW 1031,6 20 60 0,0
10.12.2018 13:00:00 11,2 6,7 16,4 10,6 12,7 12 6 20 11 WNW 1032,0 19 60 0,0
10.12.2018 12:00:00 10,2 7,1 10,7 10,7 12,6 10 5 18 10 NW 1032,6 18 60 0,0
10.12.2018 11:00:00 7,7 6,5 6,9 10,7 12,7 5 3 12 6 W 1032,6 13 27 0,0
10.12.2018 10:00:00 6,6 5,7 2,3 10,8 12,7 6 4 14 7 WNW 1032,5 13 51 0,0
10.12.2018 09:00:00 5,5 4,6 0,8 10,9 12,7 7 4 14 8 WNW 1032,0 12 0 0,0
10.12.2018 08:00:00 5,5 4,6 -0,4 11,0 12,7 7 4 9 5 W 1031,9 12 0 0,0
10.12.2018 07:00:00 5,9 4,9 0,3 11,1 12,7 4 2 8 5 WNW 1031,6 13 0 0,0
10.12.2018 06:00:00 6,0 4,8 0,9 11,1 12,7 4 2 14 8 W 1031,3 14 0 0,0
10.12.2018 05:00:00 6,3 4,8 2,3 11,2 12,7 9 5 15 8 W 1031,1 14 0 0,0
10.12.2018 04:00:00 6,2 4,7 1,7 11,2 12,7 9 5 16 8 W 1031,1 14 0 0,0
10.12.2018 03:00:00 6,9 5,0 3,8 11,3 12,7 9 5 19 10 WNW 1031,2 14 0 0,0
10.12.2018 02:00:00 7,4 5,4 4,6 11,4 12,7 12 7 22 12 W 1030,7 15 0 0,0
10.12.2018 01:00:00 7,8 5,4 4,4 11,4 12,7 13 7 21 12 W 1030,6 15 0 0,0
10.12.2018 00:00:00 8,2 5,5 5,6 11,5 12,7 16 8 29 15 W 1030,2 17 0 0,0
09.12.2018 23:00:00 8,8 5,7 5,9 11,5 12,7 18 10 32 18 W 1029,9 17 0 0,0
09.12.2018 22:00:00 9,0 5,9 6,0 11,6 12,7 15 8 25 13 W 1029,3 18 0 0,0
09.12.2018 21:00:00 9,2 5,6 6,3 11,6 12,7 15 8 31 17 W 1028,7 19 0 0,0
09.12.2018 20:00:00 9,6 5,6 6,9 11,6 12,7 18 10 30 16 WNW 1027,8 37 0 0,0
09.12.2018 19:00:00 10,0 5,6 7,4 11,6 12,7 14 7 39 21 W 1026,9 40 0 0,0
09.12.2018 18:00:00 11,4 5,9 8,3 11,6 12,7 23 12 42 23 WNW 1025,8 38 0 0,0
09.12.2018 17:00:00 11,9 6,0 10,3 11,6 12,7 19 10 45 24 W 1025,0 20 32 0,0
09.12.2018 16:00:00 12,8 6,4 13,5 11,5 12,7 24 13 54 29 W 1023,5 19 55 0,0
09.12.2018 15:00:00 13,3 6,2 13,1 11,5 12,7 27 14 59 32 WNW 1022,6 20 36 0,0
09.12.2018 14:00:00 13,4 7,6 13,3 11,5 12,7 32 17 58 31 W 1022,1 17 53 0,0
09.12.2018 13:00:00 13,1 8,2 12,4 11,5 12,7 32 17 56 30 W 1022,0 12 25 0,0
09.12.2018 12:00:00 12,6 8,5 10,0 11,5 12,7 29 15 54 29 W 1022,0 10 9 0,0
09.12.2018 11:00:00 12,0 7,3 10,3 11,6 12,7 34 18 59 32 W 1021,8 11 12 0,0
09.12.2018 10:00:00 11,6 5,9 9,1 11,6 12,7 23 13 48 26 W 1021,2 13 31 0,0
09.12.2018 09:00:00 11,0 6,3 8,6 11,6 12,7 25 14 48 26 W 1020,3 11 0 0,0
09.12.2018 08:00:00 10,6 5,1 8,4 11,7 12,7 26 14 51 27 W 1019,5 13 0 0,0
09.12.2018 07:00:00 11,1 5,8 8,5 11,7 12,7 28 15 46 25 W 1019,0 12 0 0,0
09.12.2018 06:00:00 10,7 5,7 8,5 11,7 12,7 24 13 67 36 W 1018,4 11 0 0,0
09.12.2018 05:00:00 12,0 7,5 9,4 11,7 12,7 34 18 61 33 W 1018,0 8 0 0,2
09.12.2018 04:00:00 12,2 7,9 10,7 11,7 12,7 32 18 83 45 W 1017,8 9 0 0,0
09.12.2018 03:00:00 12,3 9,3 9,8 11,7 12,7 30 16 49 26 WSW 1016,8 7 0 0,0
09.12.2018 02:00:00 12,2 8,7 10,2 11,7 12,7 36 19 63 34 W 1017,1 8 0 0,0
09.12.2018 01:00:00 12,1 9,5 10,5 11,7 12,7 33 18 63 34 W 1017,2 8 0 0,0
09.12.2018 00:00:00 12,6 10,1 10,7 11,7 12,7 32 17 59 32 W 1016,6 7 0 0,0
08.12.2018 23:00:00 12,4 9,8 10,3 11,7 12,7 27 15 63 34 WSW 1016,7 8 0 0,0
08.12.2018 22:00:00 12,6 11,0 11,3 11,7 12,7 29 16 50 27 WSW 1016,7 10 0 0,0
08.12.2018 21:00:00 12,6 11,3 11,3 11,7 12,7 28 15 55 30 WSW 1016,6 10 0 0,0
08.12.2018 20:00:00 12,7 11,8 11,5 11,7 12,7 28 15 54 29 W 1016,5 15 0 0,4
08.12.2018 19:00:00 12,8 12,3 12,0 11,7 12,7 32 17 55 30 W 1016,4 7 0 0,4
08.12.2018 18:00:00 12,4 12,1 11,6 11,7 12,7 31 17 55 30 WSW 1016,6 2,0 0 0,6
08.12.2018 17:00:00 11,9 11,4 11,5 11,7 12,7 33 18 61 33 WSW 1017,2 1,7 0 0,6
08.12.2018 16:00:00 11,7 11,2 11,5 11,7 12,7 29 16 55 30 WSW 1017,6 1,7 0 0,6
08.12.2018 15:00:00 11,8 11,0 11,4 11,7 12,7 28 15 46 25 SW 1018,4 3,3 0 0,2
08.12.2018 14:00:00 11,6 10,5 11,1 11,5 12,7 21 12 48 26 SW 1019,6 3,9 0 0,2
08.12.2018 13:00:00 11,4 10,0 11,0 11,5 12,7 24 13 52 28 WSW 1020,5 5 0 0,0
08.12.2018 12:00:00 11,8 9,5 10,9 11,4 12,7 28 15 53 29 WSW 1021,2 11 3 0,0
08.12.2018 11:00:00 12,1 9,5 10,3 11,5 12,7 27 14 48 26 WSW 1021,4 14 0 0,2
08.12.2018 10:00:00 11,1 9,2 8,6 11,5 12,7 21 11 44 24 WSW 1021,4 14 30 0,0
08.12.2018 09:00:00 10,5 7,7 8,5 11,5 12,7 21 11 37 20 WSW 1021,4 16 0 0,0
08.12.2018 08:00:00 10,6 7,8 7,8 11,6 12,7 17 9 39 21 WSW 1021,2 17 0 0,0
08.12.2018 07:00:00 9,7 7,5 7,3 11,6 12,7 16 9 35 19 WSW 1021,0 17 0 0,0
08.12.2018 06:00:00 9,8 7,2 7,8 11,6 12,7 21 12 47 26 W 1020,6 42 0 0,4
08.12.2018 05:00:00 9,9 7,3 7,1 11,7 12,7 19 10 44 24 WSW 1020,7 17 0 0,0
08.12.2018 04:00:00 9,4 6,1 6,9 11,8 12,7 20 11 55 30 WSW 1021,0 20 0 0,0
08.12.2018 03:00:00 9,7 7,3 6,4 11,8 12,7 18 10 38 20 WSW 1021,1 17 0 0,0
08.12.2018 02:00:00 9,4 6,7 7,2 11,9 12,7 21 11 42 23 WSW 1021,4 19 0 0,4
08.12.2018 01:00:00 9,4 5,9 7,1 12,0 12,7 17 9 32 17 WSW 1021,5 18 0 0,0
08.12.2018 00:00:00 9,3 5,8 7,2 12,0 12,6 18 10 39 21 WSW 1021,2 20 0 0,0
07.12.2018 23:00:00 9,4 5,2 6,5 12,1 12,6 18 10 36 19 W 1020,8 20 0 0,0
07.12.2018 22:00:00 9,1 5,5 6,0 12,2 12,6 15 8 26 14 WSW 1020,7 19 0 0,0
07.12.2018 21:00:00 8,2 4,4 5,6 12,3 12,6 14 8 25 13 WSW 1020,7 42 0 0,0
07.12.2018 20:00:00 8,1 3,5 5,7 12,3 12,6 15 8 28 15 WSW 1020,1 49 0 0,0
07.12.2018 19:00:00 9,3 2,8 6,8 12,4 12,6 19 10 42 23 W 1019,2 57 0 0,0
07.12.2018 18:00:00 10,2 4,6 7,5 12,4 12,6 27 14 51 28 W 1018,1 40 0 0,0
07.12.2018 17:00:00 10,0 5,8 7,9 12,4 12,7 24 13 52 28 W 1016,9 19 48 0,0
07.12.2018 16:00:00 10,4 6,3 8,2 12,4 12,6 29 16 65 35 W 1016,0 20 26 1,8
07.12.2018 15:00:00 12,2 6,5 11,5 12,4 12,6 32 18 59 32 W 1014,6 17 33 0,0
07.12.2018 14:00:00 12,6 9,2 11,6 12,4 12,6 34 18 63 34 W 1013,4 16 20 0,0
07.12.2018 13:00:00 12,2 11,4 11,3 12,5 12,6 27 15 66 35 W 1013,2 18 6 1,0
07.12.2018 12:00:00 13,2 12,7 12,5 12,5 12,6 32 17 66 35 SW 1012,1 1,9 0 2,0
07.12.2018 11:00:00 12,7 12,2 12,1 12,5 12,6 32 17 63 34 SSW 1013,1 3,0 0 1,6
07.12.2018 10:00:00 12,7 11,8 11,7 12,5 12,6 29 16 46 25 SSW 1014,2 10 3 0,4
07.12.2018 09:00:00 12,6 10,8 11,3 12,4 12,6 25 14 49 27 SSW 1015,7 11 0 0,0
07.12.2018 08:00:00 12,6 10,7 11,1 12,4 12,6 23 12 40 22 SW 1016,9 20 0 0,2
07.12.2018 07:00:00 12,5 10,6 10,9 12,4 12,6 22 12 45 24 SW 1017,6 14 0 0,0
07.12.2018 06:00:00 12,3 10,2 11,0 12,4 12,6 21 11 39 21 SW 1018,2 41 0 0,0
07.12.2018 05:00:00 12,5 10,9 11,5 12,6 12,6 18 10 36 19 SW 1019,4 20 0 0,0
07.12.2018 04:00:00 12,3 11,5 11,5 12,6 12,6 20 11 46 25 SW 1020,5 13 0 0,0
07.12.2018 03:00:00 12,0 11,5 11,6 12,6 12,6 18 10 32 17 SW 1021,0 12 0 0,0
07.12.2018 02:00:00 12,0 11,5 11,6 12,5 12,6 15 8 29 16 SW 1021,9 5 0 0,0
07.12.2018 01:00:00 12,0 11,4 11,6 12,5 12,6 17 9 31 17 SW 1022,7 8 0 0,0
07.12.2018 00:00:00 12,3 11,5 11,7 12,5 12,6 17 9 33 18 SW 1023,3 9 0 0,0
06.12.2018 23:00:00 12,4 11,5 11,5 12,5 12,6 16 9 28 15 SW 1023,6 13 0 0,0
06.12.2018 22:00:00 12,2 11,4 11,5 12,5 12,6 15 8 32 17 SSW 1024,0 15 0 0,0
06.12.2018 21:00:00 12,4 11,1 10,8 12,5 12,6 16 9 29 16 SW 1024,4 11 0 0,0
06.12.2018 20:00:00 12,0 10,7 10,4 12,5 12,6 14 8 25 13 SW 1024,4 15 0 0,0
06.12.2018 19:00:00 12,3 10,9 11,2 12,5 12,6 13 7 25 14 SW 1024,5 17 0 0,0

tt = Température de l'air
td = dewpoint
tt 5cm = Température de l'air 5cm
tt -20cm = Température de l'air -20cm
tt -100cm = Température de l'air -100cm
ff = Vitesse du vent
fx = gusts
dd = Direction du vent
ppp = reduced air pressure
vv = visibility
sd = Ensoleillement
rr = Quantités de précipitations

stations d'obs. à proximité